DAL511 EGLL-KJFK

Flight info

Callsign DAL511
Flight time N/A
Altitude 38000
Route CPT L9 BIBPE DCT BUCGO DCT FELCA DCT NICXI DCT BAKUR DCT NEBIN/M085F380 NATD IBERG/N0485F380 N364A TUSKY DCT PLYMM PARCH4
Aircraft A359/H-SDE2E3GHIJ3J4J5LM1ORWXY/LB1D1

Departure

Time 2026-05-07 14:07
Airport London Heathrow Airport (EGLL)

Arrival

Time N/A
Airport John F. Kennedy International Airport (KJFK)
Time Latitude Longitude Altitude Speed Heading
2026-05-07 13:34 51.46915 -0.47493 93 ft 0 kts 270°
2026-05-07 13:52 51.46915 -0.47491 93 ft 2 kts 270°
2026-05-07 13:53 51.46915 -0.47458 93 ft 3 kts 270°
2026-05-07 13:53 51.46915 -0.47424 93 ft 3 kts 270°
2026-05-07 13:53 51.46915 -0.47392 93 ft 3 kts 270°
2026-05-07 13:53 51.46915 -0.47358 93 ft 3 kts 270°
2026-05-07 13:54 51.46918 -0.47334 93 ft 0 kts 200°
2026-05-07 13:54 51.46903 -0.47341 95 ft 0 kts 190°
2026-05-07 13:58 51.46860 -0.47350 96 ft 16 kts 182°
2026-05-07 13:58 51.46756 -0.47350 93 ft 18 kts 179°
2026-05-07 13:58 51.46665 -0.47412 94 ft 14 kts 242°
2026-05-07 13:59 51.46654 -0.47577 94 ft 16 kts 270°
2026-05-07 13:59 51.46654 -0.47760 93 ft 17 kts 269°
2026-05-07 13:59 51.46653 -0.47955 96 ft 18 kts 269°
2026-05-07 13:59 51.46652 -0.48164 93 ft 19 kts 269°
2026-05-07 14:00 51.46651 -0.48368 93 ft 15 kts 270°
2026-05-07 14:00 51.46651 -0.48511 93 ft 11 kts 270°
2026-05-07 14:00 51.46651 -0.48554 93 ft 0 kts 270°
2026-05-07 14:01 51.46651 -0.48628 95 ft 8 kts 270°
2026-05-07 14:01 51.46651 -0.48663 93 ft 0 kts 268°
2026-05-07 14:02 51.46633 -0.48729 93 ft 7 kts 226°
2026-05-07 14:02 51.46613 -0.48751 93 ft 0 kts 211°
2026-05-07 14:03 51.46609 -0.48756 93 ft 7 kts 210°
2026-05-07 14:04 51.46535 -0.48779 97 ft 12 kts 171°
2026-05-07 14:04 51.46480 -0.48699 98 ft 11 kts 108°
2026-05-07 14:04 51.46477 -0.48611 97 ft 0 kts 90°
2026-05-07 14:06 51.46477 -0.48559 97 ft 24 kts 90°
2026-05-07 14:06 51.46478 -0.47795 93 ft 113 kts 90°
2026-05-07 14:06 51.46485 -0.46097 115 ft 188 kts 90°
2026-05-07 14:06 51.46487 -0.43727 481 ft 231 kts 90°
2026-05-07 14:07 51.46369 -0.41178 1435 ft 225 kts 103°
2026-05-07 14:07 51.45675 -0.38906 1931 ft 238 kts 131°
2026-05-07 14:07 51.44262 -0.37507 2520 ft 250 kts 164°
2026-05-07 14:07 51.42529 -0.37438 3364 ft 254 kts 193°
2026-05-07 14:08 51.40975 -0.38836 4137 ft 260 kts 225°
2026-05-07 14:08 51.40115 -0.41334 4838 ft 264 kts 257°
2026-05-07 14:08 51.40137 -0.44269 5606 ft 266 kts 280°
2026-05-07 14:08 51.40503 -0.47203 6370 ft 269 kts 282°
2026-05-07 14:09 51.40881 -0.50172 7185 ft 272 kts 281°
2026-05-07 14:09 51.41240 -0.53158 7971 ft 275 kts 281°